Location: Poughquag
(41.6090°N, 73.6820°W)
Time: 14:06:57
(UTC-04:00)

Altair - Pass Details

Date: 02 June 2020
Orbit: 1501 x 1683 km, 47.2° (Epoch: 05 July)

Event Time Altitude Azimuth Distance (km) Brightness Sun altitude
Rises 23:54:04 0° 258° (WSW) 4,846 10.2 -24.7°
Reaches altitude 10° 23:57:11 10° 260° (W) 3,881 9.6 -24.9°
Maximum altitude 00:07:11 72° 345° (NNW) 1,750 7.8 -25.3°
Drops below altitude 10° 00:17:23 10° 70° (ENE) 3,948 9.8 -25.6°
Sets 00:20:36 0° 72° (ENE) 4,933 10.3 -25.7°
